This demonstration page uses our WeatherBlox Daily Observations layout. Learn more.

Left ArrowRight Arrow

Hourly Observations for April 11, 2017

Temp ( °F °C ) Dew Point ( °F °C ) Humidity (%) Winds ( mph kmh ) Pressure ( in mb ) Visibility ( mi km ) Precip ( " mm )
12:53 am 00:53 Mostly Cloudy 53 11.7 44 6.7 72 72 N 5 7 30.03 1017 10 16 0.00 0.00
1:53 am 01:53 Cloudy 53 11.7 43 6.1 69 69 NW 3 6 30.01 1016 10 16 0.00 0.00
2:53 am 02:53 Cloudy 53 11.7 43 6.1 69 69 N 3 6 29.99 1016 10 16 0.00 0.00
3:53 am 03:53 Cloudy 51 10.6 44 6.7 77 77 NW 3 6 29.97 1015 10 16 0.00 0.03
4:53 am 04:53 Cloudy 50 10 47 8.3 89 89 Calm 29.96 1015 10 16 0.00 0.03
5:53 am 05:53 Cloudy with Light Rain 49 9.4 47 8.3 93 93 NW 3 6 29.95 1014 9 14 0.01 0.25
6:53 am 06:53 Cloudy with Light Rain 49 9.4 48 8.9 97 97 N 5 7 29.95 1014 10 16 0.02 0.51
7:53 am 07:53 Cloudy with Light Rain 49 9.4 48 8.9 97 97 N 3 6 29.96 1015 6 10 0.02 0.51
8:00 am 08:00 Cloudy with Light Rain 48 9 48 9 100 100 Calm 29.97 1015 6 10 0.00 0.00
8:03 am 08:03 Cloudy 50 10 48 9 94 94 Calm 29.97 1015 6 10 0.00 0.00
8:53 am 08:53 Cloudy with Light Rain 50 10 49 9.4 96 96 Calm 29.95 1014 6 10 0.03 0.76
9:46 am 09:46 Cloudy with Light Rain 51 10.6 50 10 96 96 NE 3 6 29.97 1015 5 8 0.02 0.51
9:53 am 09:53 Cloudy with Light Rain 51 10.6 50 10 96 96 Calm 29.96 1014 6 10 0.02 0.51
10:22 am 10:22 Cloudy with Rain 52 11 48 9 88 88 Calm 29.97 1015 2 3 0.00 0.00
10:32 am 10:32 Cloudy with Rain 52 11 50 10 94 94 N 5 7 29.97 1015 3 5 0.00 0.00
10:53 am 10:53 Cloudy with Light Rain 51 10.6 50 10 96 96 NE 3 6 29.95 1014 4 6 0.10 2.54
11:06 am 11:06 Cloudy with Light Rain 52 11.1 50 10 93 93 NE 3 6 29.97 1015 7 11 0.01 0.25
11:19 am 11:19 Cloudy 52 11.1 49 9.4 89 89 Calm 29.97 1015 10 16 0.01 0.25
11:36 am 11:36 Cloudy with Rain 52 11.1 49 9.4 89 89 Calm 29.94 1014 3 4 0.02 0.51
11:46 am 11:46 Cloudy with Light Rain 52 11.1 50 10 93 93 ENE 3 6 29.94 1014 3 5 0.05 1.27
11:53 am 11:53 Cloudy with Light Rain 52 11.1 50 10 93 93 Calm 29.95 1014 3 5 0.05 1.27
12:19 pm 12:19 Cloudy 52 11.1 50 10 93 93 Calm 29.94 1014 7 11 0.01 0.25
12:37 pm 12:37 Cloudy with Light Rain 52 11.1 51 10.6 97 97 Calm 29.94 1014 3 4 0.02 0.51
12:39 pm 12:39 Cloudy with Light Rain 52 11.1 51 10.6 97 97 E 3 6 29.94 1014 3 5 0.03 0.76
12:53 pm 12:53 Cloudy with Light Rain 53 11.7 51 10.6 93 93 SE 5 7 29.92 1013 6 10 0.04 1.02
1:08 pm 13:08 Cloudy with Light Rain 54 12 52 11 94 94 S 7 11 29.94 1014 7 11 0.00 0.00
1:14 pm 13:14 Cloudy with Light Rain 54 12 52 11 94 94 S 8 13 29.94 1014 7 11 0.00 0.00
1:28 pm 13:28 Cloudy 54 12 52 11 94 94 S 13 20 29.94 1014 10 16 0.00 0.00
1:53 pm 13:53 Cloudy 55 12.8 52 11.1 90 90 S 13 20 29.91 1013 10 16 0.01 0.25
2:46 pm 14:46 Cloudy 56 13.3 52 11.1 87 87 SSE 16 26 29.94 1014 10 16 0.00 0.03
2:53 pm 14:53 Cloudy 57 13.9 53 11.7 87 87 S 22 35 29.89 1012 10 16 0.00 0.03
3:23 pm 15:23 Cloudy 56 13.3 52 11.1 87 87 S 21 33 29.91 1013 9 14 0.00 0.00
3:53 pm 15:53 Cloudy with Light Rain 56 13.3 52 11.1 87 87 SSE 26 43 29.88 1012 6 10 0.00 0.03
4:53 pm 16:53 Cloudy with Light Rain 57 13.9 53 11.7 87 87 S 21 33 29.87 1011 7 11 0.00 0.03
5:53 pm 17:53 Cloudy 59 15 51 10.6 75 75 S 28 44 29.85 1011 10 16 0.00 0.03
6:53 pm 18:53 Cloudy 58 14.4 51 10.6 78 78 S 23 37 29.87 1012 10 16 0.00 0.00
7:53 pm 19:53 Partly Cloudy 58 14.4 51 10.6 78 78 S 22 35 29.87 1011 10 16 0.00 0.00
8:53 pm 20:53 Clear 57 13.9 50 10 78 78 S 20 31 29.89 1012 10 16 0.00 0.00
9:53 pm 21:53 Mostly Cloudy 57 13.9 50 10 78 78 S 17 28 29.91 1013 10 16 0.00 0.00
10:53 pm 22:53 Mostly Cloudy 55 12.8 50 10 83 83 S 10 17 29.91 1013 10 16 0.00 0.00
11:53 pm 23:53 Mostly Cloudy 55 12.8 50 10 83 83 SSW 7 11 29.92 1013 10 16 0.00 0.00

Powered by AerisWeather